SWA3176 KSFO-KMDW

Flight info

Callsign SWA3176
Flight time N/A
Altitude 33000
Route NIITE4 MOGEE Q122 LCU J94 BFF OBH JALAP ENDEE8
Aircraft B738/M-SADE2E3GIJ4RWZ/LB1D1

Departure

Time 2026-05-06 19:21
Airport San Francisco International Airport (KSFO)

Arrival

Time N/A
Airport Chicago Midway International Airport (KMDW)
Time Latitude Longitude Altitude Speed Heading
2026-05-06 18:58 37.61676 -122.38168 21 ft 0 kts 12°
2026-05-06 19:14 37.61675 -122.38168 21 ft 1 kts 12°
2026-05-06 19:14 37.61652 -122.38175 22 ft 4 kts 13°
2026-05-06 19:14 37.61630 -122.38188 21 ft 4 kts 54°
2026-05-06 19:15 37.61625 -122.38213 21 ft 2 kts 104°
2026-05-06 19:15 37.61625 -122.38214 21 ft 1 kts 104°
2026-05-06 19:17 37.61621 -122.38197 25 ft 6 kts 108°
2026-05-06 19:17 37.61594 -122.38122 21 ft 11 kts 117°
2026-05-06 19:18 37.61542 -122.38053 21 ft 11 kts 176°
2026-05-06 19:18 37.61453 -122.38103 21 ft 18 kts 197°
2026-05-06 19:18 37.61361 -122.37987 21 ft 24 kts 116°
2026-05-06 19:18 37.61273 -122.37775 22 ft 30 kts 117°
2026-05-06 19:19 37.61261 -122.37508 21 ft 35 kts 47°
2026-05-06 19:19 37.61480 -122.37350 21 ft 37 kts 28°
2026-05-06 19:19 37.61540 -122.37088 22 ft 34 kts 115°
2026-05-06 19:19 37.61406 -122.36841 21 ft 35 kts 132°
2026-05-06 19:20 37.61279 -122.36577 21 ft 36 kts 118°
2026-05-06 19:20 37.61161 -122.36295 21 ft 37 kts 118°
2026-05-06 19:20 37.61051 -122.36007 21 ft 34 kts 92°
2026-05-06 19:20 37.61211 -122.35945 21 ft 36 kts 305°
2026-05-06 19:21 37.61457 -122.36518 21 ft 111 kts 298°
2026-05-06 19:21 37.61925 -122.37624 99 ft 166 kts 298°
2026-05-06 19:21 37.62458 -122.38902 1011 ft 166 kts 296°
2026-05-06 19:21 37.63040 -122.40235 1562 ft 192 kts 315°
2026-05-06 19:22 37.64320 -122.40898 1844 ft 214 kts
2026-05-06 19:22 37.65709 -122.40218 2159 ft 223 kts 39°
2026-05-06 19:22 37.66909 -122.38947 2611 ft 227 kts 39°
2026-05-06 19:22 37.68152 -122.37720 3262 ft 225 kts 37°
2026-05-06 19:23 37.69457 -122.36489 3543 ft 245 kts 36°
2026-05-06 19:23 37.70871 -122.35184 3910 ft 256 kts 36°
2026-05-06 19:23 37.72372 -122.33996 4428 ft 261 kts 19°
2026-05-06 19:23 37.74159 -122.33746 5048 ft 262 kts 352°
2026-05-06 19:24 37.75909 -122.34409 5745 ft 265 kts 339°
2026-05-06 19:24 37.77636 -122.35276 6467 ft 270 kts 339°
2026-05-06 19:24 37.79403 -122.36162 7177 ft 274 kts 339°
2026-05-06 19:24 37.80299 -122.36607 7544 ft 275 kts 340°
2026-05-06 19:25 37.81690 -122.37294 8127 ft 277 kts 340°
2026-05-06 19:25 37.83496 -122.38181 8879 ft 279 kts 340°
2026-05-06 19:25 37.85388 -122.38728 9600 ft 282 kts 359°
2026-05-06 19:25 37.87331 -122.38654 10303 ft 286 kts
2026-05-06 19:26 37.89391 -122.38553 10512 ft 308 kts
2026-05-06 19:26 37.91607 -122.38387 10679 ft 330 kts 11°
2026-05-06 19:26 37.93790 -122.37289 10845 ft 349 kts 35°
2026-05-06 19:26 37.95490 -122.35057 11314 ft 358 kts 57°
2026-05-06 19:27 37.96696 -122.32285 12012 ft 360 kts 62°
2026-05-06 19:27 37.97824 -122.29444 12665 ft 362 kts 63°
2026-05-06 19:27 37.98942 -122.26566 13296 ft 365 kts 63°
2026-05-06 19:27 38.00070 -122.23666 13938 ft 368 kts 63°
2026-05-06 19:28 38.01210 -122.20757 14519 ft 370 kts 63°
2026-05-06 19:28 38.02366 -122.17830 15104 ft 372 kts 63°
2026-05-06 19:28 38.03535 -122.14891 15650 ft 375 kts 63°
2026-05-06 19:28 38.04720 -122.11920 16220 ft 378 kts 63°
2026-05-06 19:29 38.05911 -122.08940 16780 ft 380 kts 62°
2026-05-06 19:29 38.07113 -122.05936 17329 ft 383 kts 62°
2026-05-06 19:29 38.08322 -122.02912 17867 ft 386 kts 62°
2026-05-06 19:29 38.09538 -121.99867 18414 ft 388 kts 62°
2026-05-06 19:30 38.10763 -121.96798 18879 ft 391 kts 62°
2026-05-06 19:30 38.11996 -121.93705 19303 ft 394 kts 62°
2026-05-06 19:30 38.13239 -121.90584 19749 ft 397 kts 62°
2026-05-06 19:30 38.14474 -121.87481 20203 ft 400 kts 62°
2026-05-06 19:31 38.15751 -121.84268 20646 ft 403 kts 62°
2026-05-06 19:31 38.17020 -121.81076 21069 ft 407 kts 62°
2026-05-06 19:31 38.19587 -121.74606 21917 ft 413 kts 62°
2026-05-06 19:32 38.20865 -121.71375 22312 ft 416 kts 62°
2026-05-06 19:32 38.22168 -121.68078 22720 ft 419 kts 62°
2026-05-06 19:32 38.23482 -121.64748 23111 ft 422 kts 62°
2026-05-06 19:32 38.24802 -121.61401 23503 ft 425 kts 62°
2026-05-06 19:33 38.26132 -121.58027 23870 ft 428 kts 62°
2026-05-06 19:33 38.27017 -121.55777 24088 ft 429 kts 62°
2026-05-06 19:33 38.28812 -121.51211 24548 ft 432 kts 61°
2026-05-06 19:33 38.30157 -121.47788 24882 ft 434 kts 62°
2026-05-06 19:34 38.31509 -121.44343 25200 ft 436 kts 62°
2026-05-06 19:34 38.32868 -121.40876 25520 ft 438 kts 61°
2026-05-06 19:34 38.34355 -121.37495 25819 ft 438 kts 53°
2026-05-06 19:34 38.36181 -121.34382 26144 ft 439 kts 50°
2026-05-06 19:35 38.38102 -121.31346 26440 ft 440 kts 49°
2026-05-06 19:35 38.40052 -121.28326 26730 ft 443 kts 49°
2026-05-06 19:35 38.41987 -121.25321 27014 ft 444 kts 49°
2026-05-06 19:35 38.43937 -121.22258 27311 ft 446 kts 49°
2026-05-06 19:36 38.45888 -121.19156 27584 ft 449 kts 50°
2026-05-06 19:36 38.47832 -121.16036 27851 ft 451 kts 50°
2026-05-06 19:36 38.49779 -121.12891 28124 ft 452 kts 50°
2026-05-06 19:36 38.51732 -121.09725 28392 ft 454 kts 50°
2026-05-06 19:37 38.53689 -121.06545 28665 ft 456 kts 50°
2026-05-06 19:37 38.55644 -121.03362 29012 ft 455 kts 50°
2026-05-06 19:37 38.57593 -121.00188 29437 ft 453 kts 50°
2026-05-06 19:37 38.58882 -120.98086 29751 ft 452 kts 50°
2026-05-06 19:38 38.61469 -120.93867 30273 ft 451 kts 50°
2026-05-06 19:38 38.63404 -120.90709 30577 ft 450 kts 50°
2026-05-06 19:38 38.65332 -120.87559 30933 ft 448 kts 50°
2026-05-06 19:38 38.67222 -120.84468 31303 ft 446 kts 50°
2026-05-06 19:39 38.69133 -120.81340 31625 ft 445 kts 50°
2026-05-06 19:39 38.71036 -120.78223 31920 ft 444 kts 50°
2026-05-06 19:39 38.72932 -120.75114 32219 ft 443 kts 50°
2026-05-06 19:39 38.74824 -120.72008 32537 ft 441 kts 50°
2026-05-06 19:40 38.76712 -120.68906 32863 ft 440 kts 50°
2026-05-06 19:40 38.78590 -120.65818 33118 ft 439 kts 50°
2026-05-06 19:40 38.82365 -120.59602 33216 ft 443 kts 50°
2026-05-06 19:41 38.86134 -120.53382 33186 ft 439 kts 50°
2026-05-06 19:41 38.89866 -120.47210 33193 ft 437 kts 50°
2026-05-06 19:42 38.93589 -120.41044 33175 ft 436 kts 50°
2026-05-06 19:42 38.97301 -120.34883 33192 ft 436 kts 50°
2026-05-06 19:43 39.00987 -120.28754 33207 ft 436 kts 50°
2026-05-06 19:43 39.04698 -120.22573 33227 ft 436 kts 50°
2026-05-06 19:44 39.07803 -120.17390 33231 ft 437 kts 50°
2026-05-06 19:44 39.12129 -120.10156 33230 ft 439 kts 50°
2026-05-06 19:45 39.15221 -120.04975 33246 ft 439 kts 50°
2026-05-06 19:45 39.18944 -119.98727 33243 ft 440 kts 50°
2026-05-06 19:46 39.22665 -119.92468 33213 ft 440 kts 50°
2026-05-06 19:46 39.26396 -119.86181 33224 ft 441 kts 50°
2026-05-06 19:47 39.30123 -119.79889 33215 ft 441 kts 50°
2026-05-06 19:47 39.33851 -119.73581 33208 ft 441 kts 50°
2026-05-06 19:48 39.37569 -119.67278 33205 ft 440 kts 50°
2026-05-06 19:48 39.41277 -119.60980 33201 ft 440 kts 50°
2026-05-06 19:49 39.44957 -119.54717 33187 ft 440 kts 50°
2026-05-06 19:49 39.48659 -119.48404 33168 ft 440 kts 50°
2026-05-06 19:50 39.52350 -119.42097 33137 ft 440 kts 50°
2026-05-06 19:50 39.56037 -119.35785 33101 ft 439 kts 50°
2026-05-06 19:51 39.59723 -119.29462 33079 ft 439 kts 50°
2026-05-06 19:51 39.60938 -119.27375 33098 ft 439 kts 50°